Weather History for KTIK - July, 2013

Change the Weather History Date:

Monday, July 15, 2013

  Actual Average Record
Temperature  
Mean Temperature 70 °F -  
Max Temperature 77 °F 90 °F 106 °F (2011)
Min Temperature 63 °F 70 °F 63 °F (2013)
Cooling Degree Days 5    
Growing Degree Days 20 (Base 50)    
Moisture  
Dew Point 66 °F    
Average Humidity 94    
Maximum Humidity 100    
Minimum Humidity 69    
Precipitation  
Precipitation 1.32 in - - ()
Sea Level Pressure  
Sea Level Pressure 30.09 in    
Wind  
Wind Speed 6 mph (East)    
Max Wind Speed 13 mph    
Max Gust Speed -    
Visibility 8 miles    
Events Rain    
Averages and records for this station are not official NWS values.
T = Trace of Precipitation, MM = Missing Value Source: NWS Daily Summary

Daily Weather History Graph

Daily Weather History Graph

Search for Another Location

Airport or City:

Trip Planner

Search our weather history database for the weather conditions in past years. The results will help you decide how hot, cold, wet, or windy it might be!

Date:

Astronomy

Jul. 15, 2013 Rise Set
Actual Time 6:26 AM CDT 8:44 PM CDT
Civil Twilight 5:56 AM CDT 9:13 PM CDT
Nautical Twilight 5:21 AM CDT 9:49 PM CDT
Astronomical Twilight 4:41 AM CDT 10:28 PM CDT
Moon 1:29 PM CDT (7/15) 12:14 AM CDT (7/15)
Length of Visible Light 15h 16m
Length of Day
14h 18m
Waxing Crescent, 45% of the Moon is Illuminated
Jul 15
Waxing Crescent
Jul 15
First Quarter
Jul 22
Full
Jul 29
Last Quarter
Aug 6
New

Hourly Weather History & Observations

Time (CDT) Temp. Dew Point Humidity Pressure Visibility Wind Dir Wind Speed Gust Speed Precip Events Conditions
12:58 AM 64.0 °F 62.6 °F 95% 30.06 in 10.0 mi Calm Calm - N/A   Partly Cloudy
1:58 AM 64.0 °F 62.1 °F 93% 30.09 in 10.0 mi NE 8.1 mph - N/A   Partly Cloudy
2:55 AM 64.2 °F 62.4 °F 94% 30.06 in 10.0 mi East 3.5 mph - 0.00 in   Light Drizzle
3:58 AM 63.9 °F 62.6 °F 96% 30.06 in 10.0 mi NNE 3.5 mph - 0.02 in   Mostly Cloudy
4:58 AM 63.7 °F 62.8 °F 97% 30.06 in 10.0 mi North 8.1 mph - N/A   Mostly Cloudy
5:12 AM 64.4 °F 62.6 °F 94% 30.07 in 10.0 mi NNE 6.9 mph - N/A   Light Drizzle
5:33 AM 64.4 °F 62.6 °F 94% 30.08 in 10.0 mi NNE 5.8 mph - N/A   Mostly Cloudy
5:40 AM 64.4 °F 62.6 °F 94% 30.07 in 10.0 mi NNE 4.6 mph - N/A   Light Drizzle
5:49 AM 64.4 °F 62.6 °F 94% 30.07 in 10.0 mi NNE 4.6 mph - N/A   Mostly Cloudy
5:58 AM 64.0 °F 62.2 °F 94% 30.06 in 10.0 mi North 3.5 mph - 0.00 in   Mostly Cloudy
6:27 AM 64.4 °F 62.6 °F 94% 30.09 in 10.0 mi ENE 5.8 mph - N/A   Light Drizzle
6:46 AM 64.4 °F 60.8 °F 88% 30.07 in 10.0 mi NNE 6.9 mph - N/A   Light Drizzle
6:51 AM 64.4 °F 62.6 °F 94% 30.07 in 10.0 mi NNE 6.9 mph - N/A   Scattered Clouds
6:58 AM 63.7 °F 62.1 °F 94% 30.06 in 10.0 mi NNE 5.8 mph - 0.00 in   Scattered Clouds
7:09 AM 64.4 °F 62.6 °F 94% 30.06 in 10.0 mi North 4.6 mph - N/A   Light Drizzle
7:15 AM 64.4 °F 62.6 °F 94% 30.06 in 10.0 mi North 4.6 mph - N/A Rain Light Rain
7:58 AM 64.0 °F 62.6 °F 95% 30.08 in 10.0 mi NE 5.8 mph - 0.00 in Rain Light Rain
8:58 AM 64.0 °F 63.7 °F 99% 30.09 in 5.0 mi NE 5.8 mph - 0.15 in Rain Rain
9:23 AM 64.4 °F 64.4 °F 100% 30.07 in 3.0 mi North 3.5 mph - N/A Rain Rain
9:43 AM 64.4 °F 64.4 °F 100% 30.09 in 2.5 mi NE 5.8 mph - N/A Rain Heavy Rain
9:48 AM 64.4 °F 64.4 °F 100% 30.09 in 1.0 mi NNE 5.8 mph - N/A Rain Heavy Rain
9:58 AM 64.4 °F 64.4 °F 100% 30.09 in 2.0 mi North 6.9 mph - 0.32 in Rain Heavy Rain
10:03 AM 64.4 °F 64.4 °F 100% 30.08 in 2.0 mi North 6.9 mph - N/A Rain Heavy Rain
10:06 AM 64.4 °F 64.4 °F 100% 30.07 in 2.5 mi North 6.9 mph - N/A Rain Heavy Rain
10:11 AM 64.4 °F 64.4 °F 100% 30.07 in 1.8 mi North 9.2 mph - N/A Rain Heavy Rain
10:16 AM 64.4 °F 64.4 °F 100% 30.07 in 1.5 mi NNW 8.1 mph - N/A Rain Heavy Rain
10:21 AM 64.4 °F 64.4 °F 100% 30.07 in 2.0 mi NNW 9.2 mph - N/A Rain Heavy Rain
10:26 AM 64.4 °F 64.4 °F 100% 30.07 in 3.0 mi North 9.2 mph - N/A Rain Rain
10:36 AM 64.4 °F 64.4 °F 100% 30.07 in 4.0 mi North 10.4 mph - N/A Rain Heavy Rain
10:37 AM 64.4 °F 64.4 °F 100% 30.07 in 4.0 mi North 8.1 mph - N/A Rain Rain
10:52 AM 66.2 °F 66.2 °F 100% 30.07 in 4.0 mi North 6.9 mph - N/A Rain Rain
10:58 AM 65.3 °F 65.3 °F 100% 30.06 in 4.0 mi NNE 10.4 mph - 0.32 in Rain Light Rain
11:18 AM 66.2 °F 66.2 °F 100% 30.07 in 1.5 mi South 6.9 mph - N/A Rain Heavy Rain
11:23 AM 64.4 °F 64.4 °F 100% 30.07 in 1.0 mi SW 10.4 mph - N/A Rain Heavy Rain
11:28 AM 64.4 °F 64.4 °F 100% 30.06 in 0.8 mi SW 10.4 mph - N/A Rain Heavy Rain
11:38 AM 66.2 °F 66.2 °F 100% 30.07 in 1.0 mi SSW 12.7 mph - N/A Rain Heavy Rain
11:43 AM 66.2 °F 66.2 °F 100% 30.08 in 1.8 mi SSW 8.1 mph - N/A Rain Heavy Rain
11:48 AM 66.2 °F 66.2 °F 100% 30.07 in 2.5 mi WSW 6.9 mph - N/A Rain Light Rain
11:53 AM 66.2 °F 66.2 °F 100% 30.07 in 4.0 mi SW 8.1 mph - N/A Rain Light Rain
11:58 AM 65.7 °F 65.7 °F 100% 30.07 in 5.0 mi SW 8.1 mph - 0.43 in Rain Light Rain
12:07 PM 66.2 °F 66.2 °F 100% 30.07 in 10.0 mi WSW 5.8 mph - N/A   Overcast
12:22 PM 66.2 °F 66.2 °F 100% 30.07 in 10.0 mi SW 5.8 mph - N/A   Mostly Cloudy
12:32 PM 68.0 °F 66.2 °F 94% 30.08 in 10.0 mi South 3.5 mph - N/A   Mostly Cloudy
12:52 PM 68.0 °F 66.2 °F 94% 30.08 in 10.0 mi SSE 4.6 mph - N/A   Mostly Cloudy
12:58 PM 68.5 °F 66.0 °F 92% 30.08 in 10.0 mi SSE 4.6 mph - 0.00 in   Mostly Cloudy
1:28 PM 69.8 °F 66.2 °F 88% 30.09 in 10.0 mi SE 9.2 mph - N/A   Overcast
2:55 PM 72.0 °F 66.2 °F 82% 30.08 in 10.0 mi SE 8.1 mph - N/A   Mostly Cloudy
3:20 PM 73.4 °F 66.2 °F 78% 30.08 in 10.0 mi SE 8.1 mph - N/A   Mostly Cloudy
3:23 PM 73.4 °F 66.2 °F 78% 30.10 in 10.0 mi SSE 9.2 mph - N/A   Mostly Cloudy
3:28 PM 73.4 °F 68.0 °F 83% 30.10 in 10.0 mi ESE 8.1 mph - N/A   Mostly Cloudy
3:33 PM 73.4 °F 68.0 °F 83% 30.10 in 10.0 mi SE 8.1 mph - N/A   Mostly Cloudy
3:55 PM 75.4 °F 67.1 °F 75% 30.07 in 10.0 mi SE 5.8 mph - N/A   Mostly Cloudy
3:58 PM 75.4 °F 67.1 °F 75% 30.09 in 10.0 mi SE 6.9 mph - N/A   Mostly Cloudy
4:23 PM 75.2 °F 68.0 °F 78% 30.09 in 10.0 mi SE 8.1 mph - N/A   Mostly Cloudy
4:29 PM 77.0 °F 68.0 °F 74% 30.10 in 10.0 mi SE 10.4 mph - N/A   Mostly Cloudy
4:58 PM 77.4 °F 66.6 °F 69% 30.08 in 10.0 mi SE 11.5 mph - N/A   Partly Cloudy
5:50 PM 73.4 °F 68.0 °F 83% 30.10 in 10.0 mi SE 9.2 mph - N/A   Light Drizzle
5:58 PM 73.8 °F 67.3 °F 80% 30.10 in 10.0 mi SE 8.1 mph - 0.00 in   Light Drizzle
6:58 PM 70.5 °F 68.4 °F 93% 30.10 in 10.0 mi ESE 5.8 mph - 0.00 in   Light Drizzle
7:00 PM 69.8 °F 68.0 °F 94% 30.10 in 10.0 mi ESE 9.2 mph - N/A   Clear
7:11 PM 69.8 °F 68.0 °F 94% 30.11 in 10.0 mi ESE 6.9 mph - N/A   Light Drizzle
7:26 PM 69.8 °F 68.0 °F 94% 30.11 in 10.0 mi ESE 6.9 mph - N/A   Clear
7:39 PM 69.8 °F 68.0 °F 94% 30.11 in 10.0 mi SE 5.8 mph - N/A   Light Drizzle
7:58 PM 69.6 °F 68.0 °F 95% 30.11 in 10.0 mi SE 4.6 mph - 0.01 in Rain Light Rain
8:45 PM 68.0 °F 68.0 °F 100% 30.13 in 10.0 mi ESE 4.6 mph - N/A   Mostly Cloudy
8:49 PM 68.0 °F 68.0 °F 100% 30.13 in 10.0 mi SE 4.6 mph - N/A Rain Light Rain
8:58 PM 68.7 °F 68.2 °F 98% 30.13 in 6.0 mi ESE 4.6 mph - 0.04 in Rain Light Rain
9:06 PM 68.0 °F 68.0 °F 100% 30.13 in 10.0 mi ESE 3.5 mph - N/A   Mostly Cloudy
9:09 PM 68.0 °F 68.0 °F 100% 30.13 in 10.0 mi ESE 4.6 mph - N/A   Light Drizzle
9:32 PM 68.0 °F 68.0 °F 100% 30.14 in 10.0 mi SE 4.6 mph - N/A   Mostly Cloudy
9:46 PM 68.0 °F 68.0 °F 100% 30.14 in 10.0 mi SE 3.5 mph - N/A Rain Light Rain
9:56 PM 68.0 °F 68.0 °F 100% 30.14 in 10.0 mi ESE 4.6 mph - N/A   Mostly Cloudy
9:58 PM 68.4 °F 68.0 °F 99% 30.14 in 10.0 mi ESE 5.8 mph - 0.00 in   Mostly Cloudy
10:12 PM 68.0 °F 68.0 °F 100% 30.14 in 10.0 mi East 4.6 mph - N/A   Light Drizzle
10:58 PM 68.4 °F 68.4 °F 100% 30.15 in 10.0 mi East 5.8 mph - 0.01 in Rain Light Rain
10:59 PM 68.0 °F 68.0 °F 100% 30.15 in 10.0 mi East 4.6 mph - N/A Rain Light Rain
11:54 PM 68.0 °F 68.0 °F 100% 30.17 in 10.0 mi East 4.6 mph - N/A   Clear
11:58 PM 68.5 °F 68.2 °F 99% 30.17 in 10.0 mi East 5.8 mph - 0.02 in   Clear